Brookings, SD

10:32 AM CDT on May 22, 2017 (GMT -0500)
Brookings Municipal

Weather History for KBKX - October, 2011

Change the Weather History Date:

Monday, October 10, 2011

  Actual Average Record
Temperature  
Mean Temperature 60 °F -  
Max Temperature 66 °F 58 °F 80 °F (2015)
Min Temperature 55 °F 36 °F 24 °F (2012)
Degree Days  
Heating Degree Days 4    
Growing Degree Days 10 (Base 50)    
Moisture  
Dew Point 51 °F    
Average Humidity 72    
Maximum Humidity 94    
Minimum Humidity 49    
Precipitation  
Precipitation 0.02 in - - ()
Sea Level Pressure  
Sea Level Pressure 29.95 in    
Wind  
Wind Speed 12 mph (South)    
Max Wind Speed 21 mph    
Max Gust Speed 25 mph    
Visibility 10 miles    
Events      
Averages and records for this station are not official NWS values.
T = Trace of Precipitation, MM = Missing Value Source: NWS Daily Summary

Daily Weather History Graph

Daily Weather History Graph

Search for Another Location

Airport or City:

Trip Planner

Search our weather history database for the weather conditions in past years. The results will help you decide how hot, cold, wet, or windy it might be!

Date:

Astronomy

Oct. 10, 2011 Rise Set
Actual Time 7:35 AM CDT 6:52 PM CDT
Civil Twilight 7:06 AM CDT 7:21 PM CDT
Nautical Twilight 6:33 AM CDT 7:54 PM CDT
Astronomical Twilight 5:59 AM CDT 8:28 PM CDT
Moon 5:56 PM CDT (10/10) 6:17 AM CDT (10/10)
Length of Visible Light 12h 14m
Length of Day
11h 16m
Waxing Gibbous, 98% of the Moon is Illuminated
Oct 10
Waxing Gibbous
Oct 11
Full
Oct 19
Last Quarter
Oct 26
New
Nov 2
First Quarter

Hourly Weather History & Observations

Time (CDT) Temp. Dew Point Humidity Pressure Visibility Wind Dir Wind Speed Gust Speed Precip Events Conditions
12:15 AM 66.2 °F 48.2 °F 52% 30.03 in 10.0 mi SSE 13.8 mph 20.7 mph N/A   Overcast
12:35 AM 64.4 °F 48.2 °F 56% 30.03 in 10.0 mi South 13.8 mph 18.4 mph N/A   Mostly Cloudy
12:55 AM 64.4 °F 48.2 °F 56% 30.03 in 10.0 mi South 9.2 mph - N/A   Mostly Cloudy
1:15 AM 62.6 °F 50.0 °F 63% 30.02 in 10.0 mi SSE 8.1 mph - N/A   Mostly Cloudy
1:35 AM 62.6 °F 51.8 °F 68% 30.02 in 10.0 mi SSE 8.1 mph - N/A   Overcast
1:55 AM 62.6 °F 50.0 °F 63% 30.02 in 10.0 mi SSE 8.1 mph - N/A   Overcast
2:15 AM 60.8 °F 51.8 °F 72% 30.01 in 10.0 mi SE 6.9 mph - N/A   Mostly Cloudy
2:35 AM 60.8 °F 53.6 °F 77% 30.01 in 10.0 mi SSE 8.1 mph - N/A   Mostly Cloudy
2:55 AM 60.8 °F 51.8 °F 72% 30.01 in 10.0 mi SSE 9.2 mph - N/A   Overcast
3:35 AM 62.6 °F 55.4 °F 77% 30.00 in 10.0 mi South 15.0 mph - N/A   Overcast
3:55 AM 60.8 °F 53.6 °F 77% 30.00 in 10.0 mi South 15.0 mph 24.2 mph N/A   Overcast
4:15 AM 60.8 °F 53.6 °F 77% 29.99 in 10.0 mi South 11.5 mph - N/A   Overcast
4:35 AM 59.0 °F 53.6 °F 82% 29.99 in 10.0 mi South 10.4 mph 19.6 mph N/A   Overcast
4:55 AM 59.0 °F 53.6 °F 82% 29.99 in 10.0 mi South 12.7 mph - N/A   Mostly Cloudy
5:15 AM 59.0 °F 53.6 °F 82% 29.98 in 10.0 mi SSE 11.5 mph - N/A   Mostly Cloudy
5:35 AM 57.2 °F 55.4 °F 94% 29.98 in 10.0 mi South 9.2 mph - N/A   Mostly Cloudy
5:55 AM 57.2 °F 55.4 °F 94% 29.99 in 10.0 mi South 9.2 mph - N/A   Mostly Cloudy
6:15 AM 57.2 °F 53.6 °F 88% 29.98 in 10.0 mi South 10.4 mph - N/A   Overcast
6:35 AM 57.2 °F 53.6 °F 88% 29.98 in 10.0 mi South 11.5 mph - N/A   Mostly Cloudy
6:55 AM 57.2 °F 55.4 °F 94% 29.97 in 10.0 mi SSE 10.4 mph 16.1 mph N/A   Mostly Cloudy
7:15 AM 57.2 °F 55.4 °F 94% 29.98 in 10.0 mi SSE 11.5 mph - N/A   Overcast
7:35 AM 57.2 °F 55.4 °F 94% 29.98 in 10.0 mi South 12.7 mph 17.3 mph N/A   Overcast
8:15 AM 57.2 °F 55.4 °F 94% 29.99 in 10.0 mi South 12.7 mph 18.4 mph 0.01 in   Overcast
8:35 AM 57.2 °F 55.4 °F 94% 29.98 in 10.0 mi South 12.7 mph 18.4 mph 0.02 in   Overcast
8:55 AM 57.2 °F 53.6 °F 88% 29.98 in 10.0 mi South 11.5 mph - 0.02 in   Overcast
9:15 AM 57.2 °F 53.6 °F 88% 29.99 in 10.0 mi South 15.0 mph 20.7 mph N/A   Overcast
9:35 AM 57.2 °F 53.6 °F 88% 29.99 in 10.0 mi South 13.8 mph 20.7 mph N/A   Mostly Cloudy
9:55 AM 57.2 °F 51.8 °F 82% 29.99 in 10.0 mi South 16.1 mph 20.7 mph N/A   Mostly Cloudy
10:35 AM 57.2 °F 53.6 °F 88% 29.99 in 10.0 mi South 17.3 mph 20.7 mph N/A   Overcast
10:55 AM 57.2 °F 53.6 °F 88% 29.98 in 10.0 mi SSW 13.8 mph 19.6 mph N/A   Overcast
11:35 AM 57.2 °F 51.8 °F 82% 29.98 in 10.0 mi South 16.1 mph 21.9 mph N/A   Overcast
11:55 AM 57.2 °F 51.8 °F 82% 29.97 in 10.0 mi South 13.8 mph - N/A   Overcast
12:15 PM 59.0 °F 51.8 °F 77% 29.97 in 10.0 mi SSW 15.0 mph - N/A   Overcast
12:35 PM 59.0 °F 51.8 °F 77% 29.96 in 10.0 mi SSW 16.1 mph - N/A   Overcast
12:55 PM 59.0 °F 51.8 °F 77% 29.96 in 10.0 mi SSW 16.1 mph 21.9 mph N/A   Overcast
1:15 PM 60.8 °F 50.0 °F 68% 29.96 in 10.0 mi South 17.3 mph 25.3 mph N/A   Mostly Cloudy
1:35 PM 62.6 °F 51.8 °F 68% 29.95 in 10.0 mi South 20.7 mph 24.2 mph N/A   Scattered Clouds
1:55 PM 62.6 °F 50.0 °F 63% 29.94 in 10.0 mi South 20.7 mph 24.2 mph N/A   Scattered Clouds
2:15 PM 60.8 °F 50.0 °F 68% 29.93 in 10.0 mi South 20.7 mph - N/A   Mostly Cloudy
2:35 PM 62.6 °F 48.2 °F 59% 29.92 in 10.0 mi South 16.1 mph 21.9 mph N/A   Overcast
3:15 PM 64.4 °F 50.0 °F 59% 29.91 in 10.0 mi South 17.3 mph 24.2 mph N/A   Partly Cloudy
3:55 PM 64.4 °F 50.0 °F 59% 29.90 in 10.0 mi South 18.4 mph 24.2 mph N/A   Scattered Clouds
4:15 PM 64.4 °F 48.2 °F 56% 29.90 in 10.0 mi South 17.3 mph 20.7 mph N/A   Scattered Clouds
4:35 PM 64.4 °F 50.0 °F 59% 29.89 in 10.0 mi South 17.3 mph 23.0 mph N/A   Partly Cloudy
4:55 PM 66.2 °F 48.2 °F 52% 29.88 in 10.0 mi South 15.0 mph 21.9 mph N/A   Clear
5:15 PM 66.2 °F 48.2 °F 52% 29.88 in 10.0 mi SSW 17.3 mph 20.7 mph N/A   Clear
5:35 PM 66.2 °F 46.4 °F 49% 29.88 in 10.0 mi South 15.0 mph 23.0 mph N/A   Clear
5:55 PM 64.4 °F 46.4 °F 52% 29.88 in 10.0 mi SSW 11.5 mph 17.3 mph N/A   Clear
6:15 PM 64.4 °F 46.4 °F 52% 29.88 in 10.0 mi South 10.4 mph - N/A   Clear
6:35 PM 62.6 °F 48.2 °F 59% 29.88 in 10.0 mi South 8.1 mph - N/A   Clear
7:15 PM 60.8 °F 48.2 °F 63% 29.88 in 10.0 mi SSE 9.2 mph - N/A   Clear
7:55 PM 60.8 °F 46.4 °F 59% 29.88 in 10.0 mi SSE 10.4 mph - N/A   Clear
8:15 PM 60.8 °F 46.4 °F 59% 29.88 in 10.0 mi SSE 11.5 mph - N/A   Clear
8:35 PM 60.8 °F 46.4 °F 59% 29.88 in 10.0 mi SSE 12.7 mph - N/A   Clear
8:55 PM 60.8 °F 46.4 °F 59% 29.88 in 10.0 mi SSE 11.5 mph - N/A   Clear
9:15 PM 57.2 °F 46.4 °F 67% 29.88 in 10.0 mi SSE 12.7 mph - N/A   Clear
9:35 PM 57.2 °F 46.4 °F 67% 29.88 in 10.0 mi SSE 11.5 mph - N/A   Clear
9:55 PM 57.2 °F 46.4 °F 67% 29.88 in 10.0 mi SSE 11.5 mph - N/A   Clear
10:35 PM 55.4 °F 46.4 °F 72% 29.88 in 10.0 mi SSE 10.4 mph - N/A   Clear
10:55 PM 55.4 °F 46.4 °F 72% 29.88 in 10.0 mi SSE 11.5 mph - N/A   Clear
11:15 PM 55.4 °F 46.4 °F 72% 29.88 in 10.0 mi SSE 11.5 mph - N/A   Clear
11:35 PM 55.4 °F 46.4 °F 72% 29.88 in 10.0 mi SSE 10.4 mph - N/A   Clear